Location: Unspecified
(0.0000°N, 0.0000°E)
Time: 19:49:18
(UTC+00:00)

deb Explorer IX - Visible Passes

Search period start: 28 April 2016 00:00
Search period end: 08 May 2016 00:00
Orbit: 549 x 1135 km, 38.8° (Epoch: 28 April)

Date Brightness Start Highest point End Pass type
(mag) Time Alt. Az. Time Alt. Az. Time Alt. Az.
28 Apr ? 18:15:13 10° SW 18:22:20 60° SE 18:29:42 10° ENE visible
28 Apr ? 20:03:50 10° W 20:10:17 31° NW 20:16:38 10° NNE visible
29 Apr ? 05:18:22 10° N 05:20:57 15° NE 05:23:24 10° ENE visible
29 Apr ? 19:47:13 10° W 19:53:25 29° NW 19:59:37 10° NNE visible
30 Apr ? 05:01:12 10° N 05:04:18 18° NE 05:07:13 10° E visible
30 Apr ? 19:30:38 10° W 19:36:34 26° NW 19:42:34 10° NNE visible
01 May ? 04:44:07 10° NNW 04:47:40 21° NE 04:50:57 10° E visible
01 May ? 19:14:07 10° W 19:19:44 24° NW 19:25:28 10° NNE visible
02 May ? 04:27:04 10° NNW 04:31:01 25° NE 04:34:36 10° E visible
02 May ? 18:57:38 10° W 19:02:54 21° NW 19:08:19 10° N visible
03 May ? 04:10:05 10° NNW 04:14:22 30° NE 04:18:13 10° E visible
03 May ? 18:41:14 10° W 18:46:05 19° NW 18:51:06 10° N visible
04 May ? 03:56:10 28° N 03:57:41 35° NE 04:01:47 10° ESE visible
04 May ? 18:24:53 10° WNW 18:29:17 17° NW 18:33:50 10° N visible
05 May ? 03:42:09 35° ENE 03:42:09 35° ENE 03:45:19 10° ESE visible
05 May ? 05:24:41 10° W 05:28:06 20° SW 05:31:17 10° S visible
06 May ? 03:27:57 15° ESE 03:27:57 15° ESE 03:28:49 10° ESE visible
06 May ? 05:09:46 15° WSW 05:11:24 18° SW 05:14:24 10° S visible
07 May ? 04:55:20 16° SSW 04:55:20 16° SSW 04:57:27 10° S visible
